Back to catalog

STARLINK-3203

AliveCommunicationsVLEO
NORAD 49761·PAYLOAD·🇺🇸 United States

Launched Dec 2, 2021 from Cape Canaveral Space Force Station

Loading…

Next Passes (next 24 hours)

TLE

FreshSource: CelesTrak SupGP

Epoch: Sep 14, 2026, 21:16 UTC

1 49761C 21115AP  26257.88659722 -.00029805  00000+0 -88060-3 0  2573
2 49761  53.1589 355.6277 0001284  76.6755 104.9826 15.34405848    19

Track STARLINK-3203 in real time with AllMySat

Download on the App Store